Flag for U.S.A. Weather past 2 weeks in Ann Arbor, Michigan, U.S.A.

26 °F

Ice fog.

Feels Like: 26 °F
Forecast: 25 / 44 °F
Wind: No wind

Location: Ann Arbor Municipal Airport

Current Time: Nov 25, 2015 at 4:15:47 AM

Latest Report: Nov 25, 2015 at 3:53 AM

Visibility: 5 mi

Pressure: 30.42 "Hg

Humidity: 88%

Dew point: 23 °F

Location of Ann ArborLocation

Historic Weather in Ann Arbor — Graph


Ann Arbor temperature yesterday

Maximum temperature yesterday: 39 °F (at 1:53 PM)
Minimum temperature yesterday: 14 °F (at 2:04 AM)
Average temperature yesterday: 27 °F

Past Weeks' High & Low Weather Summary

High67 °F (Nov 15, 1:53 PM)100% (Nov 11, 1:53 AM)30.42 "Hg (Nov 11, 1:53 AM)
Low11 °F (Nov 22, 11:53 PM)29% (Nov 15, 3:53 PM)29.32 "Hg (Nov 12, 6:53 AM)
Average41 °F72%30.05 "Hg
* Reported Nov 10 2:53 AM — Nov 25 2:53 AM, Ann Arbor, Weather by CustomWeather, © 2015

Note: Actual official high and low records may vary slightly from our data, if they occured in-between our weather recording intervals... More about our weather records


Ann Arbor weather history for previous 24 hours

Time TempWeatherWind HumidityBarometerVisibility
2:53 AM
Wed, Nov 25
25 °FClear.No wind92%30.42 "Hg7 mi
2:00 AM27 °FIce fog.3 mph92%30.39 "Hg4 mi
12:53 AM31 °FIce fog.No wind96%30.41 "Hg4 mi
11:53 PM
Tue, Nov 24
31 °FIce fog.3 mph96%30.42 "Hg3 mi
10:53 PM30 °FIce fog.No wind96%30.42 "Hg3 mi
9:53 PM29 °FIce fog.No wind96%30.42 "Hg2 mi
8:53 PM27 °FIce fog.No wind96%30.42 "Hg3 mi
8:00 PM26 °FIce fog.No wind96%30.38 "Hg0 mi
6:53 PM29 °FIce fog.No wind93%30.42 "Hg2 mi
5:53 PM34 °FFog.No wind85%30.41 "Hg6 mi
4:53 PM38 °FSunny.No wind76%30.39 "Hg8 mi
3:53 PM39 °FSunny.5 mph76%30.38 "Hg7 mi
2:53 PM39 °FSunny.8 mph76%30.37 "Hg9 mi
1:53 PM39 °FSunny.No wind76%30.37 "Hg8 mi
12:53 PM37 °FPartly sunny.9 mph79%30.38 "Hg8 mi
11:53 AM34 °FFog.5 mph85%30.39 "Hg6 mi
10:53 AM32 °FIce fog.No wind96%30.38 "Hg3 mi
9:53 AM29 °FIce fog.3 mph89%30.37 "Hg3 mi
8:53 AM24 °FIce fog.5 mph88%30.35 "Hg4 mi
7:53 AM17 °FIce fog.No wind88%30.33 "Hg3 mi
6:53 AM15 °FIce fog.No wind87%30.31 "Hg4 mi
5:59 AM14 °FIce fog.No wind87%30.25 "Hg1 mi
4:53 AM16 °FIce fog.No wind87%30.25 "Hg2 mi
Weather by CustomWeather, © 2015

See weather overviewHow to use our weather pages